Theta_e
287 287 287 286 286 286 286 286 286 286 286 286 285 284 282 281 278 276 277 278 280 282 285 282 285 287 287 287 287 287 287 287 287 287 286 286 286 287 288 290 291 292 293 293 296 297 299 300 300 302 303 303 303 303 304 304 305 306 307 308 309 310 310 309 308 308 308 309 311 312 312 314 316 318
287 286 286 286 285 286 286 286 286 285 285 285 285 284 284 283 280 278 277 276 280 280 283 284 282 285 286 286 286 286 286 287 286 286 285 285 285 287 288 289 289 290 291 292 293 294 296 297 299 300 301 303 303 303 304 304 305 306 307 308 308 307 306 305 305 305 306 307 308 309 310 311 313 313
287 286 285 286 285 285 285 285 285 285 285 284 284 284 284 283 282 280 279 276 279 283 280 282 284 284 285 285 285 285 285 286 285 285 285 285 286 286 286 287 288 289 290 291 291 293 294 296 297 298 299 302 302 302 303 304 305 305 306 305 304 303 302 302 303 303 303 304 305 306 306 307 310 311
286 285 285 285 285 285 285 284 285 284 284 284 283 283 283 282 282 281 280 277 277 281 281 281 283 283 283 284 283 283 284 285 286 285 284 284 286 284 284 286 286 287 288 289 289 290 292 294 295 296 297 298 300 301 302 302 302 303 302 301 299 299 298 299 301 302 303 304 304 305 307 308 310 311
286 285 284 284 284 285 284 284 284 283 283 284 283 283 282 281 282 281 279 277 277 280 282 281 281 283 283 281 283 282 282 283 283 285 284 284 284 284 283 284 285 286 286 288 289 289 289 290 292 294 295 296 296 297 299 299 299 298 296 295 295 295 297 299 300 301 302 302 303 305 306 307 308 310
285 284 284 283 284 284 283 283 283 283 282 283 282 281 282 281 281 282 279 278 277 276 279 280 281 281 282 280 282 282 280 282 283 282 283 283 283 283 283 283 284 285 286 287 288 289 289 288 289 290 290 292 293 293 293 292 291 291 293 293 293 293 294 295 297 299 299 300 301 302 304 305 306 307
284 283 283 282 282 283 282 282 282 282 282 282 281 281 281 280 280 281 280 279 277 276 277 279 279 279 281 279 280 281 281 281 282 281 281 282 283 283 283 283 283 285 286 287 287 288 288 288 288 289 289 289 289 290 290 290 290 290 291 291 292 293 292 293 294 296 296 296 296 298 301 302 304 306
282 282 281 282 282 282 281 281 281 281 281 281 281 280 280 280 280 280 280 280 278 277 276 278 279 279 279 279 281 281 281 281 281 281 281 282 282 282 283 283 283 284 285 286 287 287 287 287 288 288 288 288 289 289 289 290 290 289 290 290 290 291 291 292 292 293 294 294 295 297 298 299 301 304
282 282 281 281 281 281 280 280 280 280 281 280 280 280 280 280 280 280 280 279 279 277 276 277 279 280 279 280 280 281 279 280 281 281 281 281 281 282 282 283 283 284 285 285 285 286 286 287 287 288 288 288 288 289 289 289 288 287 288 289 289 290 291 291 291 292 293 294 295 296 296 297 299 301
282 281 281 281 281 281 280 280 280 280 280 280 280 280 279 279 279 279 279 279 278 278 277 277 276 278 278 278 279 280 280 279 278 279 280 281 281 281 281 281 282 283 283 283 283 285 285 286 287 287 287 287 287 287 287 287 287 287 287 288 288 289 290 290 290 292 293 294 295 295 296 296 297 299
282 281 281 281 281 280 280 280 280 280 279 279 279 279 279 279 279 278 278 278 277 277 277 277 277 276 278 278 277 279 280 279 279 277 277 278 280 280 280 279 281 282 282 283 284 284 284 284 284 285 286 286 287 287 287 287 287 286 287 288 288 289 290 291 291 291 292 293 294 295 296 297 298 299
281 281 281 281 281 280 280 280 280 280 279 279 278 279 279 278 278 277 278 277 277 277 276 276 276 277 277 277 278 279 279 278 277 279 278 276 277 278 279 280 279 280 281 280 281 283 283 283 284 285 285 285 285 286 286 285 286 286 287 288 289 290 290 291 291 291 292 293 294 295 296 297 298 300
280 280 280 281 281 281 281 281 281 281 281 279 278 279 279 278 278 277 277 277 277 276 276 276 277 276 276 276 277 276 276 276 276 277 278 277 277 278 278 278 280 280 279 280 280 280 281 281 281 282 282 282 283 283 284 285 285 286 287 288 289 289 290 290 290 291 291 292 293 294 296 297 300 304
280 280 280 280 281 281 281 281 281 281 281 281 280 279 278 277 276 276 275 275 276 275 275 275 275 274 274 275 276 276 276 277 278 277 277 275 276 277 276 277 279 280 280 279 278 279 281 281 280 281 281 282 283 283 283 283 284 285 287 287 288 288 288 289 290 290 292 292 294 295 296 298 303 304
278 279 279 279 280 280 280 279 280 280 280 280 280 280 280 279 277 275 274 274 275 274 274 274 274 273 273 274 276 276 276 277 276 276 276 276 276 275 274 273 277 280 280 279 277 278 281 280 279 280 280 281 281 282 282 284 285 286 286 286 287 287 288 289 290 290 291 293 294 296 298 301 303 303
278 278 278 278 278 278 278 278 277 278 279 279 279 279 279 279 279 280 277 275 274 274 273 273 274 274 273 274 276 276 276 276 276 276 276 276 275 275 274 274 274 278 280 277 277 277 279 280 279 279 280 281 281 282 283 285 285 286 286 287 287 287 288 289 289 289 291 294 297 299 301 302 302 302
277 277 277 276 277 277 277 278 276 276 276 278 278 279 279 279 279 280 280 280 277 276 275 274 274 274 275 275 275 277 277 278 275 276 275 276 276 275 275 275 276 278 280 278 277 275 278 279 278 278 280 281 281 282 283 285 285 286 286 286 287 287 288 289 289 289 292 297 299 300 300 300 300 299
276 276 275 275 275 276 276 276 276 276 276 276 276 276 276 277 277 279 279 279 280 278 276 275 274 276 277 275 277 278 279 277 276 275 275 276 275 275 275 277 278 279 280 277 276 274 276 278 278 277 279 280 281 281 283 285 285 286 287 286 287 287 288 288 289 290 294 295 296 296 297 297 297 297
275 275 275 275 275 275 275 276 276 276 275 276 276 275 276 276 276 277 277 277 277 277 278 277 277 277 278 278 278 278 279 278 278 278 277 277 277 277 278 278 278 278 280 279 276 272 276 278 277 277 278 280 280 281 283 285 285 286 286 287 287 287 288 288 289 290 293 293 294 294 294 294 294 294
276 276 276 275 275 275 275 277 279 278 276 276 275 275 275 276 276 277 279 280 280 280 279 279 278 278 279 280 279 279 279 279 279 279 279 279 276 274 274 273 276 276 279 279 277 275 275 278 277 277 279 280 279 280 281 284 285 286 286 287 287 287 288 288 289 290 292 292 292 292 292 292 292 291
275 276 276 276 275 275 275 277 279 279 278 275 275 275 275 275 276 276 278 280 281 281 282 282 282 283 283 282 283 282 283 281 280 279 276 274 275 274 272 273 274 275 277 279 279 277 275 277 277 277 278 279 279 279 281 282 284 286 287 287 287 288 288 288 288 290 291 291 291 291 291 291 290 289
275 276 276 276 275 274 275 278 279 279 278 275 275 275 274 274 274 275 277 278 279 281 281 281 282 281 282 283 283 283 284 283 282 278 276 276 276 274 274 272 274 275 277 278 280 276 275 277 278 277 278 279 279 280 281 282 283 285 285 285 285 286 287 288 289 290 290 290 290 290 290 290 289 287
275 275 275 276 276 276 276 279 279 280 278 275 275 275 274 273 274 275 277 276 276 277 277 278 278 278 279 279 279 280 282 282 281 280 278 278 276 274 274 274 275 273 275 278 280 276 276 276 278 277 276 274 278 281 281 281 281 280 279 280 282 284 286 288 289 289 289 289 289 289 289 289 287 285
274 274 274 276 277 278 278 279 280 280 280 277 276 275 274 273 273 276 275 275 275 275 275 274 275 276 278 279 279 279 279 280 280 279 279 278 277 275 275 275 274 273 274 278 281 277 277 278 277 279 277 274 273 278 279 278 277 276 276 278 281 284 287 287 288 288 288 289 289 288 288 287 284 282
272 273 274 274 276 278 278 279 278 279 279 278 275 275 274 274 275 276 274 273 274 273 273 274 275 275 277 277 278 279 279 279 279 279 280 279 279 277 276 275 275 275 277 279 282 278 276 277 276 277 277 277 277 277 276 276 274 273 274 275 277 278 280 281 283 284 287 288 288 288 286 285 284 282
273 273 273 273 275 278 278 279 279 279 279 279 275 274 278 278 278 274 273 272 272 272 272 272 272 273 274 274 275 276 277 278 279 279 279 279 279 279 278 276 275 275 276 280 282 279 277 276 277 276 276 276 276 277 275 274 273 272 273 273 274 275 277 277 276 275 276 278 283 285 284 285 284 284
272 273 273 274 276 278 278 278 278 278 278 276 274 277 277 277 277 274 271 271 270 270 270 270 270 271 272 272 272 273 274 275 275 274 274 274 274 274 275 275 275 274 275 276 277 276 275 275 278 277 276 277 276 275 274 273 272 272 272 271 272 273 274 274 273 273 273 274 275 282 284 284 283 283
273 273 274 275 278 277 277 277 277 277 276 274 276 277 276 276 273 271 270 270 269 269 269 269 269 269 270 270 270 271 272 272 272 272 272 272 273 273 273 273 273 273 274 274 275 276 275 275 276 278 279 277 276 274 273 272 271 271 270 270 271 271 272 273 272 272 272 273 273 274 275 275 278 280
274 276 277 277 276 276 276 276 275 274 274 275 275 275 275 272 270 270 269 269 269 268 268 268 268 269 269 270 270 271 271 271 272 271 272 272 272 272 272 272 272 273 273 274 274 275 275 276 277 278 279 279 277 276 275 271 270 270 270 270 269 269 270 271 272 271 271 271 271 271 272 273 273 275
276 276 276 275 274 274 273 272 271 271 271 273 274 273 272 270 270 269 269 268 268 267 267 268 267 268 269 269 270 270 270 270 270 270 270 271 271 271 271 270 271 272 272 272 273 274 276 278 279 279 279 279 279 277 275 271 269 270 271 270 268 269 269 270 270 270 270 269 269 269 270 271 272 273
273 272 272 271 273 273 274 273 272 271 271 270 270 270 270 270 270 269 269 268 268 268 267 267 268 268 269 270 269 269 268 268 269 270 270 270 270 270 270 269 269 270 272 273 274 274 278 280 281 280 278 278 277 277 274 272 269 269 269 269 271 270 268 269 269 269 269 269 268 269 270 270 271 272
272 270 270 271 270 270 269 269 269 269 269 269 269 269 270 270 270 270 270 270 269 268 268 268 268 268 269 268 268 268 268 268 269 270 270 270 269 270 270 268 268 269 270 271 273 273 274 276 279 279 278 277 273 271 272 270 269 269 268 269 268 268 269 269 268 268 268 269 269 269 269 270 270 271
270 269 268 268 268 268 267 267 268 268 268 268 269 268 269 269 269 268 268 267 267 267 268 267 267 267 268 267 268 268 267 267 268 269 269 270 269 270 269 268 268 268 268 269 270 271 272 271 272 271 271 271 271 272 270 268 268 269 268 268 268 268 268 269 269 268 268 270 270 270 270 271 272 273
267 267 267 267 267 267 266 266 266 266 267 267 267 267 268 268 268 268 267 267 267 267 267 267 267 267 267 267 267 267 267 267 268 268 269 268 269 268 268 268 268 269 269 269 270 270 271 271 271 271 271 271 271 270 270 269 267 268 268 268 268 267 267 267 267 268 269 271 272 271 271 271 272 273
266 266 266 266 266 266 266 266 266 266 266 266 266 266 267 267 267 267 267 267 267 267 267 267 267 267 266 266 267 267 267 267 268 268 269 269 268 267 267 267 266 267 267 269 270 271 272 271 271 270 270 270 269 270 273 271 268 268 268 268 268 267 266 268 268 268 269 270 273 273 272 272 272 273
265 266 265 265 265 265 265 265 266 266 265 266 266 266 266 266 267 266 266 267 266 266 266 266 266 266 266 266 267 267 267 267 268 268 268 268 268 268 267 267 267 267 267 266 267 270 272 272 271 269 268 267 267 265 266 272 272 268 267 266 267 267 267 268 269 270 271 272 273 274 273 273 272 273
264 265 265 265 265 265 264 265 265 265 265 266 266 266 265 265 266 266 266 267 266 266 266 265 265 265 265 266 266 266 267 267 267 267 267 268 268 268 267 267 267 266 266 266 267 269 272 272 271 269 268 266 264 263 264 268 271 272 269 267 267 268 268 269 270 270 271 272 272 274 275 274 274 274
264 264 264 264 264 265 265 265 265 265 265 266 266 266 266 266 266 266 266 266 265 265 265 265 265 265 265 265 265 265 266 266 267 266 267 267 267 267 267 266 266 266 266 266 266 267 269 271 270 270 268 265 265 265 265 267 268 269 273 270 268 268 270 271 270 270 270 272 272 272 274 275 274 275
264 263 264 264 264 264 264 264 264 264 264 265 265 265 265 266 266 266 265 265 265 264 265 264 264 265 265 265 265 266 266 265 265 266 266 266 266 266 267 267 266 266 266 266 266 266 265 264 265 267 270 269 267 267 267 266 266 268 272 273 271 270 271 272 271 272 272 272 272 272 273 273 275 275
263 264 264 264 264 264 264 264 264 264 264 264 265 265 265 265 265 265 264 264 264 264 264 264 264 265 265 266 266 266 267 267 266 266 266 266 266 266 266 267 266 266 266 265 265 265 265 264 263 264 266 269 270 270 269 269 269 271 271 273 275 272 271 272 272 272 272 273 274 275 274 276 276 277
263 263 263 264 264 264 263 264 264 264 264 264 264 265 265 265 265 265 264 264 263 263 264 264 265 265 265 266 266 266 266 267 267 267 267 268 267 267 267 267 266 266 266 265 265 265 264 265 264 266 266 269 269 271 272 270 268 269 270 271 275 275 274 274 273 273 272 273 276 278 277 277 276 278
263 263 263 263 263 263 264 263 264 264 263 264 264 264 265 265 265 265 264 264 263 264 264 265 265 265 265 266 267 266 266 266 266 267 267 267 267 268 267 267 266 266 266 264 264 265 267 269 268 269 270 271 272 270 268 268 268 269 270 272 273 276 277 276 276 276 275 275 276 277 276 276 278 277
262 262 263 263 264 264 264 264 264 264 263 263 263 264 264 264 264 264 263 263 263 263 264 264 265 265 265 266 266 267 267 266 266 267 267 267 267 267 267 267 267 268 268 267 268 269 269 270 271 271 272 272 271 270 268 268 269 270 270 271 272 274 275 277 278 277 277 277 277 276 276 276 278 276
262 262 263 263 263 263 264 264 264 264 263 263 263 263 264 263 263 263 263 262 262 262 264 264 265 265 265 266 267 267 267 267 267 267 267 267 267 267 267 267 267 268 269 269 269 270 270 271 271 271 270 269 270 270 270 270 269 270 271 272 272 273 274 276 278 279 279 279 279 278 277 277 277 277
262 263 263 263 263 264 264 264 264 264 263 263 263 262 263 263 263 263 262 262 262 262 263 265 265 265 266 266 266 265 266 267 267 267 267 268 268 268 268 267 268 268 268 269 270 270 271 271 272 273 272 271 271 270 270 270 270 271 271 272 272 272 273 274 276 276 277 277 279 280 280 279 279 279
Wind_Speed
14 13 15 14 14 13 13 13 13 14 14 14 14 14 15 16 19 20 21 21 18 17 13 16 14 13 14 14 15 15 15 16 16 14 14 16 18 20 25 27 28 29 31 30 30 30 31 32 32 32 32 31 31 31 31 32 32 32 32 33 34 34 34 33 32 32 33 34 33 32 33 33 31 32
13 14 14 13 14 14 14 14 15 15 15 15 15 16 16 16 19 19 21 24 17 20 16 16 16 15 15 13 15 15 16 18 19 19 17 16 17 24 28 29 30 31 31 31 31 30 30 30 32 32 33 33 32 32 32 32 33 33 33 34 34 34 33 33 33 33 32 32 33 33 33 32 32 32
13 14 16 15 15 15 16 16 15 15 15 15 16 16 16 17 18 20 20 22 21 15 22 17 19 18 19 17 17 17 18 18 19 18 18 18 20 24 23 28 30 30 29 29 30 32 33 32 31 32 33 33 33 32 33 33 33 34 34 35 34 33 32 32 32 32 33 32 32 33 34 34 33 33
13 16 17 17 16 15 15 15 16 16 16 16 16 17 17 18 18 19 20 23 26 19 21 21 22 23 19 19 19 20 18 17 22 19 18 21 23 19 18 22 25 27 30 30 29 30 32 34 34 33 32 32 33 34 34 34 33 33 34 33 32 32 32 32 33 33 33 33 33 33 34 33 33 33
15 16 18 18 18 17 17 16 16 16 17 17 17 17 18 18 18 19 21 23 25 21 18 20 20 22 22 20 19 22 21 20 19 19 19 20 20 18 17 17 23 25 28 30 32 31 31 31 32 33 34 34 33 33 33 33 33 33 32 32 31 32 32 33 33 34 34 35 34 34 34 35 34 34
15 16 18 19 19 18 19 19 19 18 18 18 18 18 18 19 19 19 20 23 24 26 20 20 22 21 22 23 22 22 23 21 22 22 20 17 19 21 20 18 17 25 25 27 30 31 31 30 32 32 31 32 33 34 33 32 32 32 31 32 32 32 33 33 34 34 35 35 36 36 36 37 37 37
17 18 18 20 19 15 19 19 19 19 20 18 19 21 19 20 21 22 23 22 26 28 26 25 25 22 21 25 24 24 23 23 22 25 22 21 18 17 22 21 18 23 27 28 28 30 30 32 31 31 32 33 33 33 35 33 32 31 31 32 33 33 34 34 34 34 35 35 36 36 36 38 39 40
18 19 19 19 19 19 20 20 19 18 19 19 19 21 22 22 24 22 23 24 23 24 24 21 23 22 25 23 24 22 25 24 23 21 21 21 22 21 19 21 19 23 32 30 29 28 29 31 33 33 33 32 33 34 33 33 33 33 33 33 34 34 34 34 35 34 35 35 35 36 37 38 40 41
19 19 19 20 20 20 20 20 21 20 23 22 20 21 22 21 23 20 22 23 22 23 24 23 21 21 23 21 23 22 23 23 23 23 22 19 21 21 21 18 20 27 34 33 34 31 31 32 34 35 34 31 30 32 33 33 34 34 33 34 35 34 35 35 35 35 36 35 36 36 37 39 39 40
19 19 20 21 21 21 21 21 20 21 23 22 21 24 24 22 23 23 24 23 24 24 24 23 21 20 20 21 19 20 21 22 22 22 22 21 20 20 19 18 16 16 16 16 18 20 22 26 29 30 30 32 32 31 32 32 33 36 34 34 34 34 35 35 35 35 36 37 37 37 38 39 39 39
21 21 20 20 20 21 21 22 21 21 22 20 23 23 24 23 23 22 22 23 25 24 23 22 23 22 20 20 23 18 21 22 22 23 21 23 21 19 20 20 17 17 19 23 27 24 23 26 25 28 32 32 33 33 32 30 33 36 33 33 33 34 34 34 35 35 37 38 39 40 40 40 38 40
20 20 21 20 21 21 21 21 21 20 21 21 22 22 22 23 24 23 23 24 22 23 24 23 23 22 22 23 22 20 21 22 22 18 22 23 21 19 18 20 20 18 18 18 17 18 22 23 26 31 31 32 31 30 29 29 29 30 30 29 30 31 32 33 34 35 37 39 40 40 40 40 39 45
20 20 19 19 20 21 24 28 29 30 27 23 24 23 23 22 23 22 23 21 22 23 22 23 21 22 22 22 20 22 20 23 20 22 19 24 21 22 21 19 18 18 20 18 17 19 18 19 19 18 20 20 24 24 28 25 29 31 28 28 28 30 31 33 35 37 39 41 42 41 41 41 38 26
20 20 19 18 25 27 29 31 32 32 32 32 26 23 21 22 22 23 23 21 21 21 22 21 21 21 22 20 22 21 21 20 19 19 20 21 22 21 22 19 17 15 17 18 20 20 17 17 19 19 17 17 18 17 18 17 20 24 28 29 30 32 34 35 35 37 40 41 43 43 43 40 29 25
20 19 20 20 21 23 25 23 28 29 30 30 30 31 32 28 25 23 22 22 22 20 21 20 19 21 23 24 20 23 20 22 19 19 19 20 20 20 19 19 16 12 17 17 17 18 17 16 17 16 18 18 17 17 17 25 28 29 30 31 32 33 34 35 36 38 40 44 45 44 39 31 29 26
20 20 20 19 18 18 21 22 22 24 29 30 31 33 33 33 35 32 27 24 22 19 21 19 21 21 23 20 21 21 20 20 20 21 19 21 21 20 20 17 17 12 14 17 18 18 17 16 18 19 17 17 16 17 22 29 32 33 34 33 33 33 33 35 37 38 42 43 42 35 31 29 27 26
19 18 18 19 17 17 26 23 20 21 23 26 34 34 35 35 36 35 37 35 29 23 21 24 22 23 22 24 23 22 21 22 23 22 20 22 20 21 21 21 19 15 15 18 16 17 16 14 17 17 16 16 15 17 22 29 31 32 33 33 33 32 31 33 36 37 37 28 32 28 25 23 23 24
19 18 19 17 18 20 22 22 22 21 20 24 23 23 24 22 26 33 36 35 36 33 25 23 24 26 24 25 24 24 24 23 23 21 24 23 21 22 23 20 20 15 14 17 15 15 18 16 18 18 17 16 16 16 22 29 30 31 32 32 31 30 30 32 34 35 26 4 10 13 17 17 18 21
19 19 18 19 21 22 22 22 23 23 25 23 22 25 23 22 24 25 24 26 23 25 24 23 27 25 27 26 28 25 26 25 23 24 24 26 25 22 20 19 19 20 17 17 15 15 17 15 17 20 17 15 17 15 20 26 28 30 30 30 29 30 30 32 31 29 16 8 10 14 17 19 19 19
18 17 19 20 20 22 23 24 33 31 26 25 27 23 24 26 23 22 26 30 32 28 26 23 25 24 29 32 30 27 27 24 23 22 23 17 14 14 14 18 14 18 15 18 16 15 16 15 16 17 15 15 16 15 14 20 28 29 29 29 29 30 29 30 28 24 15 12 14 16 18 19 20 19
18 18 19 18 21 23 21 29 36 35 33 23 22 23 26 22 25 24 20 29 38 38 38 40 43 42 42 41 42 43 43 33 26 18 12 12 13 17 15 19 15 17 15 15 14 15 17 15 15 16 14 14 15 15 15 13 21 25 24 26 27 26 27 29 28 23 17 16 15 17 19 21 20 22
18 19 25 26 23 23 25 34 36 37 32 25 25 23 25 23 22 20 23 19 19 33 36 37 37 38 38 38 40 42 40 38 30 22 16 16 12 16 14 16 14 15 16 17 14 14 16 13 14 15 14 15 13 14 13 12 13 20 18 18 20 24 26 31 25 22 18 18 19 19 20 21 20 13
17 18 19 28 28 27 29 37 37 40 33 25 23 22 21 23 22 19 18 20 21 19 20 18 18 21 26 25 23 26 35 34 32 22 21 19 17 16 16 14 17 14 17 15 13 13 15 13 14 13 11 12 10 8 9 8 9 8 6 8 11 19 26 21 19 19 18 17 18 19 20 22 16 8
14 15 20 20 26 33 35 37 39 38 38 27 23 19 18 19 21 18 20 21 18 19 19 19 20 20 19 19 18 19 22 23 24 22 19 19 18 17 18 18 17 17 15 10 9 11 11 11 12 12 11 11 12 7 1 4 4 3 5 6 8 13 13 9 12 19 16 16 17 18 20 17 12 6
16 18 15 15 29 35 37 37 37 37 36 33 22 16 17 18 25 27 18 20 24 18 18 17 17 17 16 16 15 16 17 17 18 17 18 17 17 17 17 15 17 17 18 14 16 11 11 10 12 13 11 12 12 9 1 2 2 3 5 5 6 4 6 7 6 4 11 15 15 17 17 16 15 8
17 15 17 19 25 35 34 36 37 36 33 33 20 18 28 33 32 24 19 17 16 15 16 16 16 15 15 14 14 13 12 12 13 12 12 11 9 8 10 11 11 11 14 8 10 9 11 12 13 13 11 11 8 6 3 2 1 3 4 5 5 5 5 6 7 7 8 6 4 9 12 17 15 15
14 18 19 18 28 34 37 34 32 31 33 26 19 30 31 31 33 27 15 15 15 14 15 15 15 15 14 14 14 13 13 12 11 11 11 12 12 11 10 11 10 13 13 11 10 10 10 11 10 12 13 10 10 3 4 3 1 1 2 4 5 5 5 5 6 6 6 7 7 8 15 16 16 14
19 17 16 21 36 34 32 31 30 30 28 21 29 29 30 29 27 16 15 14 14 15 14 14 14 14 13 13 13 13 12 13 12 13 12 12 11 11 11 10 12 12 13 12 10 9 10 12 14 14 10 10 10 8 5 1 2 3 3 2 3 4 5 5 6 7 6 6 5 6 6 6 5 8
16 25 34 33 31 30 29 30 28 24 24 27 27 28 27 25 13 13 13 13 14 14 14 14 14 14 13 13 14 14 13 14 13 11 10 10 10 11 11 11 11 12 11 10 10 10 12 13 13 12 11 11 13 7 5 3 5 4 4 5 3 4 5 4 5 6 6 5 5 5 5 4 4 4
31 29 29 31 28 25 22 18 15 15 17 25 27 25 23 14 13 13 14 14 14 14 14 14 14 13 13 13 13 13 13 11 10 10 10 9 9 8 8 8 8 8 8 7 8 10 12 13 13 12 12 11 11 7 5 6 4 5 4 3 5 4 4 4 5 6 6 5 4 4 4 4 4 3
18 20 20 19 23 20 25 23 20 20 20 17 15 14 14 13 12 12 12 13 13 13 14 14 14 14 14 13 13 12 11 10 9 9 9 9 8 6 6 7 7 5 5 5 4 4 6 10 11 9 8 8 4 2 4 5 6 6 4 4 3 4 3 4 5 5 5 4 4 3 3 3 2 2
16 15 18 19 13 15 15 14 11 11 12 13 13 13 13 13 13 15 17 15 11 11 12 12 13 12 13 12 12 12 11 10 9 9 8 7 7 6 6 5 5 6 5 4 5 7 9 8 3 3 3 3 5 5 7 6 6 6 6 3 4 5 5 5 5 5 4 3 3 3 3 2 2 2
15 14 13 13 16 15 15 15 14 14 14 15 15 14 13 13 13 13 12 12 13 13 12 12 13 13 13 12 12 11 11 10 9 9 8 7 7 6 5 5 5 6 6 6 6 8 9 10 13 12 10 12 10 7 7 8 5 4 6 4 4 5 5 5 4 4 2 2 3 3 3 2 1 2
12 12 12 13 13 14 14 14 14 15 14 15 15 14 15 13 12 13 13 13 13 13 12 12 12 12 12 12 12 12 11 11 10 10 10 9 8 7 7 7 7 7 7 7 7 6 8 10 10 10 13 13 14 14 9 5 7 5 5 4 4 5 4 4 4 3 1 0 3 4 4 3 3 2
11 11 12 13 12 13 12 13 14 13 14 14 15 15 14 12 13 13 13 14 14 13 13 12 11 11 11 12 12 11 11 10 10 9 9 8 9 8 8 8 8 8 8 7 7 6 6 7 9 11 9 8 11 12 17 11 5 6 6 6 5 5 4 3 3 2 1 0 1 4 5 5 4 2
9 10 11 12 13 13 13 13 13 13 13 13 13 14 14 13 13 12 13 15 14 14 14 14 12 12 11 11 11 11 10 10 9 9 9 9 8 8 9 9 9 8 9 8 6 5 6 6 6 9 9 7 7 7 6 14 12 4 4 4 4 5 4 4 4 3 2 1 1 3 6 6 4 3
10 11 11 11 12 12 13 13 13 13 13 13 14 13 13 14 14 13 13 14 12 12 13 14 13 13 11 11 10 11 11 10 10 10 10 9 8 9 9 9 9 8 10 8 6 7 7 8 6 7 10 10 8 8 5 4 13 13 5 5 5 5 5 4 4 4 3 1 1 2 4 5 5 4
11 11 11 12 13 13 13 12 13 13 13 13 13 13 12 12 13 13 13 12 13 12 12 12 12 13 13 13 11 11 11 10 9 10 10 9 9 10 10 9 9 8 8 8 8 9 8 10 8 7 6 7 9 8 5 4 5 9 11 6 6 4 2 3 4 4 4 2 4 3 3 5 5 4
10 11 11 12 13 13 14 14 13 13 13 12 12 13 13 13 13 13 13 12 12 12 11 11 11 12 12 13 12 11 11 12 11 12 11 11 10 9 9 10 8 8 9 9 9 9 9 9 8 8 7 7 8 5 5 6 5 2 5 8 3 2 3 3 5 5 4 4 4 2 4 2 2 2
11 10 11 11 12 13 13 13 13 12 12 12 12 12 12 13 13 13 13 13 13 12 11 10 11 11 11 11 11 11 11 12 11 10 11 11 11 11 10 9 8 7 9 10 10 9 10 10 8 7 7 8 8 7 6 7 6 5 6 10 13 6 3 2 5 6 6 3 2 5 5 4 5 2
12 12 11 11 12 12 13 13 12 12 12 12 12 11 11 11 11 12 12 12 12 12 12 12 12 11 10 11 11 10 10 11 11 11 10 10 11 11 12 9 10 9 9 10 10 10 9 7 6 8 5 3 2 3 2 6 8 7 8 8 10 9 8 7 3 2 4 1 1 6 7 7 6 5
12 11 12 12 12 12 12 13 12 12 12 12 11 12 12 11 11 15 13 14 12 11 11 12 12 11 11 10 10 10 9 9 10 10 10 10 10 11 13 12 11 11 11 9 8 7 6 4 3 3 2 3 4 8 10 7 6 6 6 6 7 10 11 10 10 10 7 5 4 5 6 4 4 5
11 11 12 12 12 11 12 12 12 12 12 12 11 12 12 11 11 11 10 11 11 11 11 11 11 10 10 10 11 11 10 10 11 10 11 11 11 10 11 11 10 9 9 8 8 8 6 7 7 7 6 7 7 6 8 7 6 5 5 5 6 6 8 13 13 9 8 8 7 6 4 2 0 3
11 11 11 11 12 12 12 12 12 11 12 12 12 11 11 12 12 11 10 10 10 10 10 10 11 11 11 11 11 11 11 11 11 12 12 11 12 12 10 9 8 8 8 10 8 7 7 7 8 6 8 9 6 7 9 8 10 6 6 6 5 6 7 6 7 10 12 14 9 3 2 3 5 6
10 10 11 11 11 12 11 11 12 12 11 11 11 11 11 11 11 10 9 10 10 11 11 11 11 11 12 12 11 11 10 10 10 10 9 10 10 10 9 8 8 8 8 7 8 7 7 7 7 7 9 9 8 8 6 7 8 6 7 8 9 6 6 4 6 9 8 7 10 10 7 4 2 1
Wind_Direction
276 275 275 274 276 276 276 274 273 272 271 270 271 270 272 277 280 289 290 286 288 283 277 286 278 271 269 271 271 272 271 267 268 274 276 278 281 280 280 279 279 280 281 279 277 279 284 286 286 287 288 288 289 289 289 290 290 291 291 290 291 291 293 292 292 291 290 289 286 286 285 284 282 281
280 278 277 277 278 278 277 276 274 274 273 272 271 271 270 268 271 276 280 284 282 288 278 275 281 281 278 274 276 278 273 272 275 276 269 266 266 273 279 279 278 280 281 280 277 275 275 279 283 285 286 287 287 288 288 288 288 288 289 290 291 292 292 292 291 291 289 287 286 284 284 282 281 281
283 281 279 278 277 278 277 276 275 273 272 271 272 271 270 267 267 270 274 278 277 277 285 280 279 281 283 284 280 276 277 276 274 273 272 268 266 269 270 273 279 279 276 277 279 280 279 278 278 281 283 284 286 286 286 286 287 288 288 289 291 291 292 291 291 289 287 285 283 281 280 279 277 275
283 283 280 279 278 279 280 278 277 276 274 273 274 273 272 270 268 270 270 270 276 277 279 285 285 284 282 282 281 279 276 275 272 272 271 272 269 266 268 266 267 273 278 277 276 275 277 278 279 279 281 281 283 285 286 286 286 287 287 288 289 290 288 288 287 286 285 284 281 279 278 277 276 275
281 279 279 279 280 281 280 280 280 278 278 277 276 274 272 271 269 268 271 272 278 278 275 282 284 287 287 283 277 280 279 277 277 273 272 272 272 269 270 269 267 265 268 272 275 275 273 272 274 277 280 281 282 283 284 284 285 285 286 286 285 285 284 284 284 284 284 283 282 280 278 277 277 276
282 281 282 283 284 284 283 282 281 280 280 277 276 275 272 273 272 271 275 278 279 282 284 281 283 282 286 285 284 281 282 278 281 279 275 271 269 276 275 273 268 267 266 267 271 274 275 273 274 275 276 278 279 281 281 281 281 281 280 280 282 283 282 282 282 282 282 281 281 280 279 277 277 275
286 285 284 285 285 285 284 282 279 278 276 275 275 276 275 274 277 278 277 279 280 281 283 284 283 283 283 284 286 282 283 283 282 281 278 278 274 275 277 276 276 271 270 267 266 270 271 275 273 273 275 276 276 275 277 277 277 278 278 280 280 281 281 280 280 280 279 280 279 278 277 277 276 274
286 285 285 284 285 284 281 281 280 280 278 277 279 280 282 280 280 279 277 276 278 280 280 282 282 284 288 285 286 285 286 283 282 279 279 276 276 277 274 274 273 275 275 269 263 264 268 270 272 272 273 272 273 276 275 275 277 278 278 279 280 279 279 279 279 278 277 277 276 275 275 273 274 273
284 285 285 287 285 283 282 283 285 287 283 284 283 282 283 281 279 278 276 276 276 277 279 277 278 279 280 280 283 282 285 283 280 283 279 278 278 274 273 275 278 276 278 277 274 270 267 268 271 273 273 273 273 276 277 276 278 280 278 277 278 276 276 277 278 278 277 276 275 274 273 273 273 271
291 290 288 285 284 283 282 281 283 282 282 284 281 280 281 279 279 278 277 277 274 274 275 277 279 273 276 278 273 274 278 279 281 280 278 275 276 276 274 271 276 277 279 282 279 274 272 270 272 274 277 277 276 275 276 274 273 276 276 275 276 275 274 275 277 278 278 277 275 273 272 271 271 268
292 288 284 284 282 281 279 280 280 282 282 278 277 278 281 278 279 279 278 276 276 275 276 275 274 275 271 271 276 269 271 272 274 278 281 280 275 269 272 276 273 277 278 276 276 273 274 277 275 276 275 272 273 274 275 274 274 276 274 274 274 274 274 275 277 278 279 277 276 274 272 270 270 269
288 285 283 281 280 278 278 280 281 281 282 284 284 284 282 281 281 280 278 278 277 279 280 278 281 278 279 278 273 275 275 274 272 269 277 278 280 277 275 275 278 276 279 281 279 278 280 278 276 275 273 272 272 274 275 274 273 273 273 272 272 273 274 276 277 279 279 279 276 274 272 269 270 264
287 285 282 280 279 280 282 283 284 283 281 283 284 284 283 283 283 281 281 280 279 279 277 279 278 281 280 280 281 281 278 277 276 282 282 283 280 284 280 277 272 275 278 275 277 277 274 276 273 274 279 279 279 278 276 276 274 273 272 272 272 274 277 279 279 280 281 279 277 274 270 268 259 216
286 285 283 283 285 286 287 286 285 284 284 284 285 286 289 287 286 283 283 281 280 280 279 279 282 281 281 281 279 281 281 284 284 281 280 279 280 278 278 273 272 270 268 271 272 272 269 274 278 281 275 279 277 279 280 278 277 276 276 277 277 276 279 279 280 281 281 280 277 272 267 260 221 189
289 288 290 289 290 288 289 287 289 290 290 290 289 288 285 283 283 284 281 280 280 278 279 279 277 275 277 275 276 278 281 280 277 278 276 275 276 277 278 279 278 261 269 268 273 272 274 275 275 276 275 276 276 276 275 277 277 276 275 276 277 277 278 280 280 283 283 280 273 266 256 227 196 181
290 291 294 294 295 291 290 289 291 291 289 291 289 286 288 282 282 278 278 278 277 275 276 274 274 276 274 273 276 275 275 275 273 273 271 272 271 272 271 274 272 267 263 274 273 276 276 274 277 275 274 273 272 272 273 275 277 277 276 277 278 278 278 278 281 284 285 276 265 250 216 191 180 171
291 292 293 293 292 290 291 290 289 290 290 286 289 285 281 282 277 278 278 275 272 272 273 274 269 270 274 273 273 268 271 274 273 272 267 268 266 267 270 271 272 267 266 270 270 274 276 268 272 273 272 274 274 273 270 270 272 273 274 278 278 278 278 279 282 285 281 269 238 205 187 175 163 158
292 291 292 292 291 291 290 291 291 289 286 292 285 285 283 280 281 279 279 277 275 273 272 267 265 267 265 269 269 267 268 269 267 267 268 266 263 264 263 260 267 265 265 266 269 273 273 269 273 271 272 271 269 267 267 270 271 272 274 277 277 278 278 280 281 282 268 254 124 130 147 142 139 142
290 290 287 288 289 291 292 293 288 291 293 290 290 288 283 280 280 279 277 277 274 275 269 270 268 264 266 262 262 261 263 257 256 262 262 265 263 263 268 270 266 271 264 262 260 263 265 264 266 269 268 267 264 265 266 269 270 271 273 275 276 278 278 279 278 270 239 179 143 133 132 132 131 135
291 289 291 290 291 296 292 292 296 296 296 293 291 287 286 284 278 279 274 272 267 268 268 264 264 262 266 259 262 256 260 257 258 261 261 261 263 261 258 262 261 263 254 247 250 260 262 259 260 266 263 260 264 265 264 265 266 269 272 273 275 278 278 277 273 253 201 172 153 143 139 138 136 133
293 294 293 297 300 298 296 297 298 297 296 296 292 290 288 284 284 280 275 276 277 271 272 272 269 269 268 266 266 264 262 260 261 262 254 252 253 255 252 258 253 257 256 251 244 253 258 258 258 264 263 257 264 267 268 262 267 270 273 278 279 280 280 277 268 230 185 166 156 145 139 133 129 128
301 299 301 300 299 296 299 300 300 301 302 297 294 289 291 285 284 280 285 282 282 278 279 284 279 275 278 276 272 273 274 273 268 267 259 256 233 241 239 247 250 254 257 251 249 255 253 252 254 261 266 265 260 259 260 261 268 277 282 284 285 283 279 275 246 203 179 165 153 145 140 138 133 127
303 300 301 299 298 301 302 303 303 302 299 298 297 296 296 295 290 288 292 294 298 298 296 291 294 286 283 278 273 273 270 270 271 268 266 266 260 258 255 252 261 262 255 256 233 244 255 251 251 254 265 261 256 242 246 256 268 276 296 296 289 282 274 247 199 186 166 156 150 146 143 140 129 125
300 302 303 297 304 306 303 302 302 302 304 306 306 308 303 302 302 309 309 306 305 304 300 293 286 277 272 267 263 262 263 263 261 261 260 258 255 255 257 258 257 258 265 258 234 233 250 251 255 251 241 262 268 262 205 255 276 325 334 310 297 285 260 209 181 154 148 149 148 147 138 117 107 99
306 305 301 305 304 302 305 304 304 311 314 316 315 312 308 307 310 316 315 314 312 302 298 296 297 296 292 284 273 264 262 258 263 264 257 252 249 248 248 248 253 256 258 253 248 237 247 241 249 250 252 257 258 262 156 254 352 356 346 336 315 346 44 49 54 74 127 134 139 134 116 116 110 95
306 302 306 300 303 305 302 313 317 318 318 321 320 313 316 319 323 324 317 309 308 307 306 305 302 301 298 300 300 298 294 287 279 282 281 280 286 286 284 277 277 273 266 289 283 266 257 246 242 251 254 249 243 242 249 251 11 358 358 3 344 353 33 63 58 53 40 28 65 121 115 120 124 122
302 305 300 300 304 313 318 318 320 323 323 324 319 319 319 319 321 319 311 311 313 311 310 307 306 307 308 309 308 304 302 305 315 317 313 306 297 289 281 276 269 270 276 279 274 269 272 275 269 252 249 236 243 188 220 224 213 82 42 18 1 358 19 53 64 53 37 47 23 73 114 120 123 122
305 303 308 313 317 317 320 322 323 321 319 316 316 318 320 322 320 316 316 316 314 313 311 310 308 307 306 303 301 300 300 298 297 291 286 280 279 275 275 272 270 269 271 272 270 253 246 248 250 247 241 233 234 220 205 109 94 156 139 58 41 18 24 45 73 63 57 49 52 36 45 52 81 114
309 316 317 318 319 320 320 320 319 317 316 314 316 317 318 318 315 318 319 317 315 312 310 308 306 304 305 304 301 301 295 292 288 285 283 279 277 271 267 266 266 267 265 263 263 253 244 239 235 237 236 227 230 217 175 159 156 162 161 144 91 17 28 45 59 71 64 55 52 40 35 47 55 43
321 321 322 320 319 317 317 319 318 313 309 312 314 317 319 319 317 318 319 319 318 316 314 312 310 310 312 312 310 306 304 301 298 300 299 299 292 292 290 292 283 263 244 247 247 248 243 235 229 222 219 216 221 212 163 136 150 145 161 141 114 74 28 45 67 62 72 72 53 39 40 48 50 45
324 324 319 315 314 314 316 317 315 315 315 317 321 323 325 323 321 318 318 319 317 314 312 314 315 315 314 313 317 324 325 319 316 314 307 300 303 308 303 298 300 301 276 274 268 272 254 234 221 204 202 198 191 180 123 108 120 130 103 132 168 140 133 72 65 62 64 75 70 66 71 65 62 9
326 319 316 319 322 324 327 326 323 324 323 323 322 324 321 322 320 320 321 319 315 315 315 311 314 316 322 325 327 329 333 332 333 329 316 324 324 325 327 324 324 325 328 347 19 21 42 38 60 76 79 108 109 100 88 84 111 124 132 107 70 74 82 100 91 79 80 91 96 99 108 118 138 164
323 324 326 328 333 338 334 331 330 331 329 329 326 322 324 327 329 333 337 334 333 329 327 328 329 329 332 331 336 339 345 343 345 348 351 355 348 356 12 11 356 360 358 12 26 33 47 61 63 67 66 62 55 65 102 106 89 103 135 120 106 94 83 66 85 94 112 112 114 118 111 110 119 136
319 324 326 330 329 330 332 330 330 330 329 325 325 330 332 331 332 336 339 340 334 331 331 329 331 335 335 337 340 346 349 348 351 0 9 9 8 15 15 21 20 13 19 28 34 48 70 78 77 69 70 67 59 46 35 74 111 107 100 98 83 90 64 69 66 82 77 53 133 117 106 96 86 76
336 334 332 330 330 328 326 329 328 324 322 328 330 328 330 337 339 340 340 341 335 332 332 333 334 335 337 336 340 342 345 345 353 1 9 17 22 24 24 29 22 17 12 20 35 43 80 84 89 86 71 72 73 59 49 40 74 89 96 73 69 76 78 67 82 75 100 247 273 114 107 100 91 74
332 335 332 330 330 330 330 325 321 323 327 325 327 330 334 336 340 340 339 336 335 335 336 339 340 343 343 342 341 346 347 352 359 359 1 11 16 28 33 29 29 29 33 25 0 13 58 69 83 94 90 78 81 75 38 35 43 16 76 94 67 81 82 83 77 96 122 87 343 132 122 121 115 125
337 338 335 330 329 330 327 325 328 327 328 331 332 335 335 334 335 335 332 333 340 339 340 338 340 340 342 344 345 354 357 357 1 2 7 11 23 29 37 35 31 26 37 13 8 13 53 60 52 81 97 90 75 76 50 348 45 45 40 79 75 66 81 75 84 81 61 43 13 35 101 110 112 106
342 336 335 334 334 332 328 329 330 331 333 334 335 334 336 334 332 334 337 343 345 342 343 344 339 342 345 348 347 351 357 358 2 8 5 9 15 26 32 38 41 37 41 31 24 23 27 52 40 32 72 93 101 88 83 34 36 25 41 67 83 79 76 112 113 116 104 64 58 35 38 89 96 104
345 341 338 336 336 335 334 335 335 333 333 335 337 338 335 334 335 341 344 344 340 338 341 346 344 344 344 350 351 354 359 1 5 7 7 9 13 16 24 34 31 20 32 32 25 21 21 30 18 11 29 56 70 79 94 99 65 358 62 71 81 78 60 90 110 107 110 98 84 61 50 46 76 81
343 341 338 337 334 335 333 335 336 335 335 337 334 335 334 335 339 342 342 343 342 339 339 341 343 344 354 353 348 353 6 11 9 8 9 16 17 21 32 38 27 23 41 36 35 27 32 29 12 14 3 51 80 92 107 109 110 78 53 44 53 55 40 81 103 113 101 88 132 120 117 140 113 123
344 341 341 335 335 336 337 335 335 334 335 332 330 331 336 335 340 344 342 338 336 337 344 346 348 348 345 349 356 353 359 4 9 9 8 15 22 22 20 18 34 22 45 43 36 33 20 3 318 318 335 29 21 233 116 63 52 35 44 41 41 63 65 59 65 66 101 207 98 107 108 107 118 128
342 340 337 340 340 339 336 335 336 336 335 335 335 336 335 340 341 344 346 344 343 341 349 351 351 350 350 350 353 358 5 4 2 4 8 8 14 25 26 30 31 26 40 37 26 26 357 329 317 322 334 354 4 56 59 56 62 51 54 60 65 58 64 73 66 61 52 22 38 85 95 98 118 115
343 340 339 340 339 336 335 336 337 337 335 333 334 335 337 337 343 350 352 348 343 346 348 349 347 348 345 347 351 0 5 8 5 7 14 19 20 21 23 23 25 33 42 44 45 35 17 16 5 21 35 52 36 51 69 55 52 49 42 33 40 59 63 58 59 60 50 45 40 47 24 15 102 117
343 341 338 338 337 333 333 335 337 337 336 337 335 337 342 343 345 348 348 346 343 342 338 343 346 349 351 353 358 6 11 5 7 11 16 20 25 26 25 22 14 22 36 47 45 40 33 36 26 22 48 40 19 50 58 53 50 34 34 37 20 30 43 64 77 73 68 58 54 43 355 22 52 45
341 339 335 335 335 334 334 337 340 340 339 339 341 343 340 343 345 345 347 349 346 342 346 352 348 351 355 359 2 3 358 1 7 10 11 19 23 28 15 8 16 17 19 22 49 34 24 33 30 34 54 54 45 52 37 48 52 39 38 40 40 27 33 19 52 63 60 56 36 41 58 49 17 325